When you browse on this site, cookies collect data to enhance your experience and personalize the content and advertising you see.
Visit our Privacy Policy to learn more. By continuing to use the site, you agree to this use of cookies and data.
  • In Sweden
  • List of Countries
  • For 7 days
  • Water Temperature
  • Satellite Maps
  • Weather Map
  • Weather Widgets
  • user-avatar
    Login

    Hourly Weather Darwin

    Today, 16 July, Tuesday

    Time Temperature Precipitation Wind Pressure Humidity
    00:00 +21°C° 0 mm 7 mps 761 mmHg 33%
    01:00 +21°C° 0 mm 7 mps 761 mmHg 37%
    02:00 +20°C° 0 mm 7 mps 761 mmHg 41%
    03:00 +20°C° 0 mm 6 mps 760 mmHg 46%
    04:00 +19°C° 0 mm 6 mps 761 mmHg 49%
    05:00 +17°C° 0 mm 6 mps 761 mmHg 51%
    06:00 +16°C° 0 mm 6 mps 761 mmHg 54%
    07:00 +19°C° 0 mm 6 mps 761 mmHg 49%
    08:00 +21°C° 0 mm 6 mps 761 mmHg 43%
    09:00 +23°C° 0 mm 6 mps 762 mmHg 39%
    10:00 +26°C° 0 mm 5 mps 761 mmHg 33%
    11:00 +29°C° 0 mm 5 mps 761 mmHg 27%
    12:00 +32°C° 0 mm 4 mps 760 mmHg 21%
    13:00 +33°C° 0 mm 4 mps 759 mmHg 20%
    14:00 +34°C° 0 mm 3 mps 759 mmHg 19%
    15:00 +35°C° 0 mm 2 mps 758 mmHg 19%
    16:00 +31°C° 0 mm 2 mps 758 mmHg 25%
    17:00 +29°C° 0 mm 2 mps 759 mmHg 31%
    18:00 +26°C° 0 mm 2 mps 759 mmHg 37%
    19:00 +25°C° 0 mm 2 mps 759 mmHg 42%
    20:00 +23°C° 0 mm 2 mps 760 mmHg 48%
    21:00 +21°C° 0 mm 2 mps 761 mmHg 48%
    22:00 +21°C° 0 mm 3 mps 760 mmHg 41%
    23:00 +21°C° 0 mm 4 mps 760 mmHg 34%

    Tomorrow, 17 July, Wednesday

    Time Temperature Precipitation Wind Pressure Humidity
    00:00 +20°C° 0 mm 5 mps 760 mmHg 27%
    01:00 +20°C° 0 mm 6 mps 760 mmHg 31%
    02:00 +19°C° 0 mm 6 mps 760 mmHg 34%
    03:00 +19°C° 0 mm 6 mps 760 mmHg 37%
    04:00 +17°C° 0 mm 6 mps 760 mmHg 40%
    05:00 +17°C° 0 mm 7 mps 760 mmHg 42%
    06:00 +16°C° 0 mm 7 mps 760 mmHg 45%
    07:00 +18°C° 0 mm 7 mps 760 mmHg 41%
    08:00 +21°C° 0 mm 7 mps 761 mmHg 36%
    09:00 +23°C° 0 mm 7 mps 761 mmHg 32%
    10:00 +26°C° 0 mm 6 mps 761 mmHg 28%
    11:00 +29°C° 0 mm 5 mps 760 mmHg 24%
    12:00 +32°C° 0 mm 4 mps 759 mmHg 20%
    13:00 +33°C° 0 mm 4 mps 759 mmHg 19%
    14:00 +34°C° 0 mm 3 mps 758 mmHg 18%
    15:00 +35°C° 0 mm 3 mps 757 mmHg 18%
    16:00 +31°C° 0 mm 3 mps 757 mmHg 27%
    17:00 +28°C° 0 mm 2 mps 757 mmHg 36%
    18:00 +26°C° 0 mm 2 mps 757 mmHg 45%
    19:00 +24°C° 0 mm 1 mps 758 mmHg 50%
    20:00 +22°C° 0 mm 1 mps 759 mmHg 55%
    21:00 +21°C° 0 mm 1 mps 759 mmHg 61%
    22:00 +20°C° 0 mm 1 mps 759 mmHg 59%
    23:00 +20°C° 0 mm 1 mps 759 mmHg 57%

    Day after tomorrow, 18 July, Thursday

    Time Temperature Precipitation Wind Pressure Humidity
    00:00 +19°C° 0 mm 2 mps 760 mmHg 56%
    01:00 +19°C° 0 mm 2 mps 759 mmHg 57%
    02:00 +19°C° 0 mm 3 mps 759 mmHg 58%
    03:00 +18°C° 0 mm 3 mps 759 mmHg 59%
    04:00 +18°C° 0 mm 3 mps 759 mmHg 61%
    05:00 +17°C° 0 mm 4 mps 759 mmHg 62%
    06:00 +15°C° 0 mm 4 mps 759 mmHg 64%
    07:00 +18°C° 0 mm 4 mps 760 mmHg 56%
    08:00 +20°C° 0 mm 5 mps 760 mmHg 48%
    09:00 +23°C° 0 mm 5 mps 761 mmHg 40%
    10:00 +26°C° 0 mm 5 mps 760 mmHg 33%
    11:00 +29°C° 0 mm 5 mps 760 mmHg 26%
    12:00 +33°C° 0 mm 4 mps 759 mmHg 19%
    13:00 +34°C° 0 mm 4 mps 758 mmHg 18%
    14:00 +35°C° 0 mm 5 mps 758 mmHg 17%
    15:00 +36°C° 0 mm 5 mps 757 mmHg 16%
    16:00 +33°C° 0 mm 5 mps 757 mmHg 26%
    17:00 +29°C° 0 mm 4 mps 757 mmHg 35%
    18:00 +26°C° 0 mm 4 mps 758 mmHg 44%
    19:00 +23°C° 0 mm 4 mps 758 mmHg 54%
    20:00 +22°C° 0 mm 4 mps 759 mmHg 64%
    21:00 +20°C° 0 mm 4 mps 759 mmHg 73%
    22:00 +20°C° 0 mm 3 mps 760 mmHg 79%
    23:00 +20°C° 0 mm 3 mps 760 mmHg 84%

    19 July, Friday

    Time Temperature Precipitation Wind Pressure Humidity
    00:00 +19°C° 0 mm 3 mps 760 mmHg 90%
    01:00 +19°C° 0 mm 3 mps 760 mmHg 92%
    02:00 +19°C° 0 mm 3 mps 759 mmHg 93%
    03:00 +19°C° 0 mm 3 mps 759 mmHg 95%
    04:00 +18°C° 0 mm 3 mps 759 mmHg 93%
    05:00 +18°C° 0 mm 4 mps 759 mmHg 91%
    06:00 +18°C° 0 mm 4 mps 760 mmHg 89%
    07:00 +20°C° 0 mm 4 mps 760 mmHg 77%
    08:00 +22°C° 0 mm 5 mps 760 mmHg 65%
    09:00 +23°C° 0 mm 5 mps 760 mmHg 53%
    10:00 +27°C° 0 mm 5 mps 760 mmHg 45%
    11:00 +30°C° 0 mm 4 mps 760 mmHg 36%
    12:00 +34°C° 0 mm 4 mps 759 mmHg 27%
    13:00 +35°C° 0 mm 4 mps 759 mmHg 25%
    14:00 +36°C° 0 mm 4 mps 758 mmHg 23%
    15:00 +36°C° 0 mm 5 mps 757 mmHg 22%
    16:00 +33°C° 0 mm 4 mps 757 mmHg 32%
    17:00 +29°C° 0 mm 4 mps 758 mmHg 43%
    18:00 +26°C° 0 mm 3 mps 758 mmHg 53%
    19:00 +25°C° 0 mm 3 mps 758 mmHg 57%
    20:00 +24°C° 0 mm 3 mps 759 mmHg 60%
    21:00 +21°C° 0 mm 3 mps 759 mmHg 64%
    22:00 +21°C° 0 mm 3 mps 759 mmHg 69%
    23:00 +20°C° 0 mm 2 mps 760 mmHg 74%

    20 July, Saturday

    Time Temperature Precipitation Wind Pressure Humidity
    00:00 +20°C° 0 mm 2 mps 760 mmHg 78%
    01:00 +20°C° 0 mm 2 mps 760 mmHg 82%
    02:00 +20°C° 0 mm 2 mps 759 mmHg 87%
    03:00 +20°C° 0 mm 2 mps 759 mmHg 91%
    04:00 +19°C° 0 mm 2 mps 759 mmHg 93%
    05:00 +19°C° 0 mm 3 mps 760 mmHg 94%
    06:00 +19°C° 0 mm 3 mps 760 mmHg 96%
    07:00 +21°C° 0 mm 4 mps 760 mmHg 82%
    08:00 +23°C° 0 mm 4 mps 760 mmHg 69%
    09:00 +26°C° 0 mm 4 mps 761 mmHg 55%
    10:00 +28°C° 0 mm 4 mps 760 mmHg 46%
    11:00 +31°C° 0 mm 3 mps 760 mmHg 36%
    12:00 +34°C° 0 mm 3 mps 759 mmHg 27%
    13:00 +35°C° 0 mm 3 mps 758 mmHg 24%
    14:00 +36°C° 0 mm 4 mps 758 mmHg 22%
    15:00 +37°C° 0 mm 4 mps 757 mmHg 19%
    16:00 +34°C° 0 mm 4 mps 757 mmHg 30%
    17:00 +30°C° 0 mm 3 mps 757 mmHg 42%
    18:00 +26°C° 0 mm 3 mps 757 mmHg 53%
    19:00 +25°C° 0 mm 3 mps 758 mmHg 61%
    20:00 +22°C° 0 mm 3 mps 758 mmHg 69%
    21:00 +20°C° 0 mm 3 mps 759 mmHg 77%
    22:00 +20°C° 0 mm 3 mps 759 mmHg 81%
    23:00 +20°C° 0 mm 3 mps 759 mmHg 86%

    21 July, Sunday

    Time Temperature Precipitation Wind Pressure Humidity
    00:00 +20°C° 0 mm 3 mps 759 mmHg 90%
    01:00 +20°C° 0 mm 3 mps 759 mmHg 92%
    02:00 +20°C° 0 mm 3 mps 759 mmHg 93%
    03:00 +20°C° 0 mm 3 mps 758 mmHg 95%
    04:00 +19°C° 0 mm 3 mps 759 mmHg 95%
    05:00 +19°C° 0 mm 3 mps 759 mmHg 95%
    06:00 +19°C° 0 mm 4 mps 759 mmHg 95%
    07:00 +21°C° 0 mm 4 mps 759 mmHg 84%
    08:00 +22°C° 0 mm 4 mps 759 mmHg 72%
    09:00 +25°C° 0 mm 4 mps 760 mmHg 60%
    10:00 +28°C° 0 mm 4 mps 759 mmHg 46%
    11:00 +32°C° 0 mm 4 mps 759 mmHg 32%
    12:00 +35°C° 0 mm 4 mps 758 mmHg 19%
    13:00 +36°C° 0 mm 4 mps 757 mmHg 18%
    14:00 +36°C° 0 mm 4 mps 757 mmHg 16%
    15:00 +37°C° 0 mm 5 mps 756 mmHg 15%
    16:00 +34°C° 0 mm 4 mps 756 mmHg 23%
    17:00 +30°C° 0 mm 4 mps 756 mmHg 31%
    18:00 +27°C° 0 mm 3 mps 756 mmHg 39%
    19:00 +25°C° 0 mm 3 mps 757 mmHg 45%
    20:00 +24°C° 0 mm 3 mps 757 mmHg 51%
    21:00 +21°C° 0 mm 3 mps 758 mmHg 56%
    22:00 +20°C° 0 mm 2 mps 758 mmHg 63%
    23:00 +19°C° 0 mm 2 mps 758 mmHg 69%
    Show more